Location: Unspecified
(0.0000°N, 0.0000°E)
Time: 14:29:26
(UTC+00:00)

Vanguard 3 - Visible Passes

Search period start: 25 April 2018 00:00
Search period end: 05 May 2018 00:00
Orbit: 508 x 3264 km, 33.3° (Epoch: 24 April)

Date Brightness Start Highest point End Pass type
(mag) Time Alt. Az. Time Alt. Az. Time Alt. Az.
25 Apr 9.2 03:01:58 46° N 03:04:30 54° NE 03:19:32 10° ESE visible
25 Apr 9.7 05:07:35 10° WNW 05:19:27 59° SSW 05:38:05 10° SE visible
26 Apr 10.2 01:53:09 24° ENE 01:53:09 24° ENE 02:00:05 10° E visible
26 Apr 9.0 03:57:48 37° WNW 04:03:17 84° SW 04:20:41 10° SE visible
27 Apr 9.0 02:48:58 61° ENE 02:48:58 61° ENE 03:02:39 10° ESE visible
27 Apr 9.6 04:53:38 16° W 05:03:10 50° SSW 05:20:39 10° SE visible
28 Apr 10.5 01:40:07 19° E 01:40:07 19° E 01:43:50 10° E visible
28 Apr 8.7 03:44:46 60° W 03:47:05 73° SSW 04:03:23 10° SE visible
29 Apr 9.4 02:35:51 47° ESE 02:35:51 47° ESE 02:45:43 10° ESE visible
29 Apr 9.5 04:40:30 24° W 04:47:05 42° SSW 05:03:08 10° SE visible
30 Apr 10.9 01:26:53 12° ESE 01:26:53 12° ESE 01:27:32 10° ESE visible
30 Apr 8.8 03:31:31 60° SSW 03:31:31 60° SSW 03:46:02 10° SE visible
01 May 10.0 02:22:29 30° ESE 02:22:29 30° ESE 02:28:45 10° SE visible
01 May 9.5 04:27:07 29° WSW 04:31:11 35° SSW 04:45:34 10° SE visible
02 May 9.4 03:18:01 42° S 03:18:01 42° S 03:28:38 10° SE visible
02 May 10.2 05:23:16 10° WSW 05:32:32 23° SSW 05:45:07 10° SSE visible
03 May 10.5 02:08:50 18° SE 02:08:50 18° SE 02:11:47 10° SE visible
03 May 9.6 04:13:27 27° SW 04:15:27 29° SSW 04:27:55 10° SSE visible
04 May 9.9 03:04:13 28° SSE 03:04:13 28° SSE 03:11:13 10° SE visible
04 May 10.3 05:08:56 10° SW 05:16:56 19° S 05:27:28 10° SSE visible
